Weather History for KGHG - November, 2013

Change the Weather History Date:

Friday, November 22, 2013

  Actual Average (KPVC) Record (KPVC)
Temperature  
Mean Temperature 44 °F -  
Max Temperature 50 °F 47 °F - (-1)
Min Temperature 39 °F 37 °F - (-1)
Degree Days  
Heating Degree Days 20    
Moisture  
Dew Point 43 °F    
Average Humidity 92    
Maximum Humidity 100    
Minimum Humidity 70    
Precipitation  
Precipitation 0.14 in - - ()
Sea Level Pressure  
Sea Level Pressure 30.11 in    
Wind  
Wind Speed 1 mph (SW)    
Max Wind Speed 6 mph    
Max Gust Speed -    
Visibility 6 miles    
Events Fog , Rain    
Averages and records for this station are not official NWS values.
T = Trace of Precipitation, MM = Missing Value Source: NWS Daily Summary

Daily Weather History Graph

Daily Weather History Graph

Search for Another Location

Airport or City:

Trip Planner

Search our weather history database for the weather conditions in past years. The results will help you decide how hot, cold, wet, or windy it might be!

Date:

Astronomy

Nov. 22, 2013 Rise Set
Actual Time 6:41 AM EST 4:15 PM EST
Civil Twilight 6:10 AM EST 4:46 PM EST
Nautical Twilight 5:36 AM EST 5:20 PM EST
Astronomical Twilight 5:03 AM EST 5:54 PM EST
Moon 8:46 PM EST (11/22) 10:21 AM EST (11/22)
Length of Visible Light 10h 35m
Length of Day
9h 34m
Waning Gibbous, 78% of the Moon is Illuminated
Nov 22
Waning Gibbous
Nov 25
Last Quarter
Dec 2
New
Dec 9
First Quarter
Dec 17
Full

Hourly Weather History & Observations

Time (EST) Temp. Windchill Dew Point Humidity Pressure Visibility Wind Dir Wind Speed Gust Speed Precip Events Conditions
12:15 AM 39.2 °F - 32.0 °F 75% 30.40 in 10.0 mi Calm Calm - N/A   Mostly Cloudy
12:35 AM 39.2 °F - 32.0 °F 75% 30.39 in 10.0 mi Calm Calm - N/A   Overcast
12:55 AM 39.2 °F 37.0 °F 32.0 °F 75% 30.38 in 10.0 mi SSW 3.5 mph - N/A   Overcast
1:15 AM 41.0 °F - 32.0 °F 70% 30.38 in 10.0 mi Calm Calm - N/A   Mostly Cloudy
1:35 AM 41.0 °F - 33.8 °F 76% 30.37 in 10.0 mi Calm Calm - N/A   Mostly Cloudy
1:55 AM 42.8 °F - 33.8 °F 70% 30.36 in 10.0 mi Calm Calm - N/A   Overcast
2:15 AM 42.8 °F - 33.8 °F 70% 30.35 in 10.0 mi Calm Calm - N/A   Overcast
2:35 AM 42.8 °F - 33.8 °F 70% 30.35 in 10.0 mi Calm Calm - N/A   Mostly Cloudy
2:55 AM 42.8 °F - 35.6 °F 76% 30.35 in 10.0 mi Calm Calm - N/A   Overcast
3:15 AM 42.8 °F - 35.6 °F 76% 30.34 in 10.0 mi Calm Calm - N/A   Overcast
3:35 AM 42.8 °F - 35.6 °F 76% 30.33 in 10.0 mi Calm Calm - N/A   Overcast
3:55 AM 42.8 °F - 35.6 °F 76% 30.33 in 10.0 mi Calm Calm - N/A   Overcast
4:15 AM 42.8 °F 41.1 °F 35.6 °F 76% 30.32 in 10.0 mi SW 3.5 mph - N/A   Mostly Cloudy
4:35 AM 42.8 °F 41.1 °F 37.4 °F 81% 30.31 in 10.0 mi SW 3.5 mph - N/A   Mostly Cloudy
4:55 AM 44.6 °F - 37.4 °F 76% 30.30 in 10.0 mi Calm Calm - N/A   Mostly Cloudy
5:15 AM 42.8 °F - 37.4 °F 81% 30.29 in 10.0 mi Calm Calm - N/A   Mostly Cloudy
5:35 AM 42.8 °F - 37.4 °F 81% 30.28 in 10.0 mi Calm Calm - N/A   Mostly Cloudy
5:55 AM 42.8 °F - 37.4 °F 81% 30.28 in 10.0 mi Calm Calm - N/A   Scattered Clouds
6:15 AM 42.8 °F - 37.4 °F 81% 30.27 in 10.0 mi Calm Calm - N/A   Partly Cloudy
6:35 AM 42.8 °F - 39.2 °F 87% 30.27 in 10.0 mi Calm Calm - N/A   Mostly Cloudy
6:55 AM 42.8 °F - 39.2 °F 87% 30.27 in 10.0 mi Calm Calm - N/A   Light Drizzle
7:15 AM 42.8 °F - 39.2 °F 87% 30.27 in 10.0 mi Calm Calm - N/A Rain Light Rain
7:35 AM 42.8 °F - 41.0 °F 93% 30.26 in 10.0 mi Calm Calm - N/A   Light Drizzle
7:55 AM 42.8 °F - 41.0 °F 93% 30.25 in 10.0 mi Calm Calm - N/A   Light Drizzle
8:15 AM 44.6 °F - 42.8 °F 93% 30.23 in 10.0 mi Calm Calm - N/A Rain Light Rain
8:35 AM 44.6 °F 43.1 °F 42.8 °F 93% 30.23 in 10.0 mi SSW 3.5 mph - 0.01 in   Light Drizzle
8:55 AM 44.6 °F - 42.8 °F 93% 30.23 in 10.0 mi Calm Calm - 0.01 in Rain Light Rain
9:15 AM 44.6 °F - 44.6 °F 100% 30.22 in 9.0 mi Calm Calm - N/A Rain Light Rain
9:35 AM 46.4 °F - 44.6 °F 93% 30.21 in 10.0 mi Calm Calm - 0.02 in Rain Light Rain
9:55 AM 46.4 °F 45.2 °F 44.6 °F 93% 30.20 in 10.0 mi South 3.5 mph - 0.02 in Rain Light Rain
10:15 AM 46.4 °F - 44.6 °F 93% 30.18 in 10.0 mi Calm Calm - N/A Rain Light Rain
10:35 AM 46.4 °F - 46.4 °F 100% 30.17 in 10.0 mi Calm Calm - 0.01 in   Light Drizzle
10:55 AM 46.4 °F - 46.4 °F 100% 30.15 in 3.0 mi Calm Calm - 0.02 in Rain Light Rain
11:15 AM 46.4 °F 45.2 °F 46.4 °F 100% 30.14 in 3.0 mi South 3.5 mph - 0.02 in Rain Light Rain
11:35 AM 46.4 °F - 46.4 °F 100% 30.12 in 3.0 mi Calm Calm - 0.04 in Rain Light Rain
11:55 AM 46.4 °F - 46.4 °F 100% 30.10 in 2.5 mi Calm Calm - 0.05 in Rain Light Rain
12:15 PM 46.4 °F 45.2 °F 46.4 °F 100% 30.08 in 4.0 mi SE 3.5 mph - N/A   Light Drizzle
12:35 PM 46.4 °F 45.2 °F 46.4 °F 100% 30.07 in 3.0 mi SE 3.5 mph - N/A   Light Drizzle
12:55 PM 48.2 °F - 46.4 °F 93% 30.06 in 2.0 mi ESE 3.5 mph - 0.01 in   Drizzle
1:15 PM 48.2 °F - 48.2 °F 100% 30.04 in 3.0 mi Calm Calm - N/A Rain Light Rain
1:35 PM 48.2 °F - 48.2 °F 100% 30.02 in 5.0 mi Calm Calm - 0.01 in   Light Drizzle
1:55 PM 48.2 °F - 48.2 °F 100% 30.01 in 3.0 mi Calm Calm - 0.02 in   Drizzle
2:15 PM 48.2 °F - 48.2 °F 100% 30.01 in 3.0 mi Calm Calm - 0.01 in   Drizzle
2:35 PM 48.2 °F - 48.2 °F 100% 30.00 in 3.0 mi Calm Calm - 0.01 in   Overcast
2:55 PM 50.0 °F - 50.0 °F 100% 30.00 in 3.0 mi Calm Calm - 0.01 in   Overcast
3:15 PM 50.0 °F - 50.0 °F 100% 29.99 in 7.0 mi Calm Calm - N/A   Overcast
3:35 PM 50.0 °F - 50.0 °F 100% 29.99 in 7.0 mi NW 3.5 mph - N/A   Overcast
3:55 PM 48.2 °F - 48.2 °F 100% 29.98 in 9.0 mi NNW 3.5 mph - N/A   Overcast
4:15 PM 48.2 °F - 48.2 °F 100% 29.98 in 4.0 mi Calm Calm - N/A   Overcast
4:35 PM 48.2 °F - 48.2 °F 100% 29.97 in 5.0 mi WNW 3.5 mph - N/A   Overcast
4:55 PM 48.2 °F - 48.2 °F 100% 29.97 in 4.0 mi WNW 3.5 mph - N/A   Overcast
5:15 PM 48.2 °F - 48.2 °F 100% 29.98 in 9.0 mi WNW 5.8 mph - N/A   Overcast
5:35 PM 48.2 °F - 46.4 °F 93% 29.97 in 8.0 mi West 3.5 mph - N/A   Overcast
5:55 PM 48.2 °F - 46.4 °F 93% 29.96 in 4.0 mi Calm Calm - N/A   Overcast
6:15 PM 46.4 °F - 46.4 °F 100% 29.95 in 8.0 mi Calm Calm - N/A   Overcast
6:35 PM 46.4 °F - 46.4 °F 100% 29.95 in 3.0 mi Calm Calm - N/A   Overcast
6:55 PM 46.4 °F - 46.4 °F 100% 29.94 in 3.0 mi Calm Calm - N/A   Overcast
7:15 PM 46.4 °F - 46.4 °F 100% 29.94 in 1.8 mi Calm Calm - N/A   Overcast
7:35 PM 46.4 °F - 46.4 °F 100% 29.94 in 1.8 mi Calm Calm - N/A   Overcast
7:55 PM 46.4 °F - 46.4 °F 100% 29.93 in 1.5 mi Calm Calm - N/A   Overcast
8:15 PM 46.4 °F - 46.4 °F 100% 29.93 in 1.2 mi Calm Calm - N/A   Overcast
8:35 PM 46.4 °F - 46.4 °F 100% 29.92 in 1.2 mi Calm Calm - N/A   Overcast
8:55 PM 46.4 °F - 46.4 °F 100% 29.91 in 0.8 mi Calm Calm - N/A   Overcast
9:15 PM 46.4 °F - 46.4 °F 100% 29.90 in 0.5 mi Calm Calm - N/A Fog Fog
9:35 PM 46.4 °F - 46.4 °F 100% 29.89 in 1.0 mi Calm Calm - N/A   Overcast
9:55 PM 46.4 °F - 46.4 °F 100% 29.89 in 0.8 mi Calm Calm - N/A   Overcast
10:15 PM 46.4 °F - 46.4 °F 100% 29.88 in 0.2 mi Calm Calm - N/A Fog Fog
10:35 PM 46.4 °F 45.2 °F 46.4 °F 100% 29.87 in 4.0 mi SW 3.5 mph - N/A   Overcast
10:55 PM 46.4 °F 45.2 °F 46.4 °F 100% 29.86 in 6.0 mi SW 3.5 mph - N/A   Overcast
11:15 PM 48.2 °F - 46.4 °F 93% 29.85 in 5.0 mi Calm Calm - N/A   Overcast
11:35 PM 48.2 °F - 46.4 °F 93% 29.84 in 6.0 mi Calm Calm - N/A   Overcast
11:55 PM 48.2 °F - 46.4 °F 93% 29.83 in 7.0 mi Calm Calm - N/A   Overcast